Location: Newark
(63.1158°N, 8.1461°E)
Time: 00:22:39
(UTC+00:00)

Envisat - Pass Details

Date: 18 December 2019
Orbit: 764 x 766 km, 98.1° (Epoch: 22 January)

Event Time Altitude Azimuth Distance (km) Brightness Sun altitude
Rises 16:03:59 0° 141° (SE) 3,232 6.1 -12.3°
Reaches altitude 10° 16:06:19 10° 138° (SE) 2,308 5.3 -12.5°
Maximum altitude 16:11:17 55° 61° (ENE) 920 3.1 -13.0°
Drops below altitude 10° 16:16:16 10° 345° (NNW) 2,321 5.4 -13.5°
Sets 16:18:37 0° 341° (NNW) 3,250 6.2 -13.7°
